Location: *
(48.8667°N, 2.3331°E)
Time: 13:48:54
(UTC+00:00)

Cosmos 2360 Rocket - Pass Details

Date: 09 April 2020
Orbit: 834 x 845 km, 71.0° (Epoch: 25 May)

Event Time Altitude Azimuth Distance (km) Brightness Sun altitude
Rises 21:28:37 0° 335° (NNW) 3,394 6.6 -25.0°
Reaches altitude 10° 21:32:09 10° 358° (N) 2,458 5.3 -25.4°
Maximum altitude 21:35:28 16° 34° (NE) 2,082 4.4 -25.7°
Enters shadow 21:37:55 12° 62° (ENE) 2,292 4.3 -26.0°
